This is the latest recevied weather packets stored in our database for station/object JQ1YUX-13. If no packets are shown the sender has not sent any weather packets the latest 10 day(s).
| Time | Temp. | Humidity | Pressure | Rain* | Wind** | Luminosity | Snow |
|---|---|---|---|---|---|---|---|
| 1777201986 | 18.89° C | 73% | 1016 hPa | 0 mm | - | - | - |
| 1777201084 | 18.89° C | 73% | 1016.1 hPa | 0 mm | - | - | - |
| 1777200185 | 18.89° C | 73% | 1015.9 hPa | 0 mm | - | - | - |
| 1777199285 | 18.89° C | 72% | 1016.1 hPa | 0 mm | - | - | - |
| 1777198386 | 18.89° C | 72% | 1016.2 hPa | 0 mm | - | - | - |
| 1777197485 | 18.89° C | 73% | 1016.1 hPa | 0 mm | - | - | - |
| 1777196586 | 18.89° C | 73% | 1016.1 hPa | 0 mm | - | - | - |
| 1777195684 | 18.89° C | 73% | 1016.1 hPa | 0 mm | - | - | - |
| 1777194785 | 19.44° C | 72% | 1016.1 hPa | 0 mm | - | - | - |
| 1777193886 | 19.44° C | 72% | 1015.8 hPa | 0 mm | - | - | - |
| 1777192984 | 19.44° C | 70% | 1015.7 hPa | 0 mm | - | - | - |
| 1777192085 | 20.56° C | 66% | 1015.6 hPa | 0 mm | - | - | - |
| 1777191186 | 20.56° C | 66% | 1015.6 hPa | 0 mm | - | - | - |
| 1777190284 | 21.11° C | 65% | 1015.8 hPa | 0 mm | - | - | - |
| 1777189385 | 21.11° C | 64% | 1015.6 hPa | 0 mm | - | - | - |
| 1777188486 | 21.11° C | 64% | 1015.6 hPa | 0 mm | - | - | - |
| 1777187584 | 21.67° C | 62% | 1015.8 hPa | 0 mm | - | - | - |
| 1777186685 | 21.67° C | 61% | 1015.5 hPa | 0 mm | - | - | - |
| 1777185785 | 21.67° C | 63% | 1015.7 hPa | 0 mm | - | - | - |
| 1777184886 | 21.67° C | 61% | 1015.7 hPa | 0 mm | - | - | - |
| 1777183984 | 21.67° C | 61% | 1015.9 hPa | 0 mm | - | - | - |
| 1777183085 | 21.67° C | 61% | 1016 hPa | 0 mm | - | - | - |
| 1777182186 | 21.67° C | 61% | 1016.2 hPa | 0 mm | - | - | - |
| 1777181284 | 21.67° C | 61% | 1016.2 hPa | 0 mm | - | - | - |
| 1777180384 | 21.67° C | 61% | 1016.4 hPa | 0 mm | - | - | - |
* Rain latest hour (hover to see other rain measurements)
** Current wind speed in m/s (hover to see current wind gust speed)